Tel Aviv, Israel

10:25 AM IDT on October 22, 2017 (GMT +0300)
Ben Gurion

Weather History for LLBG - March, 2014

Change the Weather History Date:

Sunday, March 16, 2014

  Actual Average Record
Temperature  
Mean Temperature 61 °F -  
Max Temperature 76 °F 70 °F 78 °F (2011)
Min Temperature 46 °F 54 °F 42 °F (1998)
Degree Days  
Heating Degree Days 4    
Growing Degree Days 11 (Base 50)    
Moisture  
Dew Point 46 °F    
Average Humidity 58    
Maximum Humidity 82    
Minimum Humidity 21    
Precipitation  
Precipitation 0.00 in - - ()
Sea Level Pressure  
Sea Level Pressure 30.03 in    
Wind  
Wind Speed 4 mph ()    
Max Wind Speed 9 mph    
Max Gust Speed -    
Visibility 6.0 miles    
Events      
Averages and records for this station are not official NWS values.
T = Trace of Precipitation, MM = Missing Value Source: Averaged Metar Reports

Daily Weather History Graph

Daily Weather History Graph

Search for Another Location

Airport or City:

Trip Planner

Search our weather history database for the weather conditions in past years. The results will help you decide how hot, cold, wet, or windy it might be!

Date:

Astronomy

Mar. 16, 2014 Rise Set
Actual Time 5:49 AM IST 5:48 PM IST
Civil Twilight 5:25 AM IST 6:13 PM IST
Nautical Twilight 4:57 AM IST 6:41 PM IST
Astronomical Twilight 4:28 AM IST 7:10 PM IST
Moon 5:44 PM IST (3/16) 5:22 AM IST (3/16)
Length of Visible Light 12h 47m
Length of Day
11h 59m
Full, 100% of the Moon is Illuminated
Mar 16
Full
Mar 16
Full
Mar 24
Last Quarter
Mar 30
New
Apr 7
First Quarter

Hourly Weather History & Observations

Time (IST) Temp. Windchill Dew Point Humidity Pressure Visibility Wind Dir Wind Speed Gust Speed Precip Events Conditions
12:20 AM 50.0 °F - 44.6 °F 82% 30.12 in - East 4.6 mph - N/A   Clear
12:50 AM 50.0 °F - 44.6 °F 82% 30.12 in - Variable 3.5 mph - N/A   Clear
1:20 AM 50.0 °F - 44.6 °F 82% 30.12 in - Variable 2.3 mph - N/A   Clear
1:50 AM 50.0 °F - 44.6 °F 82% 30.09 in - Variable 3.5 mph - N/A   Clear
2:00 AM 50 °F - 44 °F 73% 30.12 in 6 mi 3.5 mph - -  
2:20 AM 48.2 °F - 42.8 °F 82% 30.09 in - ENE 4.6 mph - N/A   Clear
2:50 AM 48.2 °F - 42.8 °F 82% 30.09 in - Variable 2.3 mph - N/A   Clear
3:20 AM 48.2 °F - 42.8 °F 82% 30.06 in - Variable 1.2 mph - N/A   Clear
3:50 AM 48.2 °F - 42.8 °F 82% 30.06 in - Variable 1.2 mph - N/A   Clear
4:20 AM 48.2 °F - 42.8 °F 82% 30.06 in - Variable 1.2 mph - N/A   Clear
4:50 AM 48.2 °F - 42.8 °F 82% 30.06 in - Variable 1.2 mph - N/A   Clear
5:00 AM 47 °F - 42 °F 78% 30.09 in 6 mi 2.3 mph - -  
5:20 AM 48.2 °F - 42.8 °F 82% 30.09 in - Variable 3.5 mph - N/A   Clear
5:50 AM 46.4 °F 44.3 °F 41.0 °F 81% 30.09 in - East 4.6 mph - N/A   Clear
6:20 AM 48.2 °F - 42.8 °F 82% 30.09 in - Variable 3.5 mph - N/A   Clear
6:50 AM 50.0 °F - 42.8 °F 76% 30.09 in - Variable 1.2 mph - N/A   Clear
7:20 AM 53.6 °F - 44.6 °F 72% 30.09 in - Variable 2.3 mph - N/A   Clear
7:50 AM 55.4 °F - 44.6 °F 67% 30.09 in - ENE 4.6 mph - N/A   Clear
8:00 AM 55 °F - 45 °F 59% 30.12 in 6 mi ENE 4.6 mph - -  
8:20 AM 57.2 °F - 46.4 °F 67% 30.12 in - Variable 2.3 mph - N/A   Clear
8:50 AM 62.6 °F - 46.4 °F 55% 30.09 in - East 5.8 mph - N/A   Clear
9:20 AM 64.4 °F - 42.8 °F 45% 30.09 in - SE 5.8 mph - N/A   Clear
9:50 AM 66.2 °F - 42.8 °F 43% 30.09 in - SE 4.6 mph - N/A   Clear
10:20 AM 68.0 °F - 41.0 °F 37% 30.09 in - South 5.8 mph - N/A   Clear
10:50 AM 69.8 °F - 44.6 °F 40% 30.09 in - South 6.9 mph - N/A   Clear
11:00 AM 69 °F - 44 °F 30% 30.09 in 6 mi South 6.9 mph - -  
11:20 AM 69.8 °F - 42.8 °F 38% 30.06 in - South 9.2 mph - N/A   Clear
11:50 AM 71.6 °F - 41.0 °F 33% 30.06 in - South 9.2 mph - N/A   Clear
12:20 PM 71.6 °F - 42.8 °F 35% 30.04 in - South 8.1 mph - N/A   Clear
12:50 PM 71.6 °F - 42.8 °F 35% 30.01 in - South 9.2 mph - N/A   Clear
1:20 PM 73.4 °F - 42.8 °F 33% 30.01 in - South 9.2 mph - N/A   Clear
1:50 PM 75.2 °F - 42.8 °F 31% 30.01 in - SSW 8.1 mph - N/A   Clear
2:00 PM 75 °F - 43 °F 21% 30.01 in 6 mi SSW 8.1 mph - -   Mostly Cloudy
2:20 PM 73.4 °F - 44.6 °F 36% 29.98 in - South 8.1 mph - N/A   Clear
2:50 PM 75.2 °F - 46.4 °F 36% 29.98 in - SSW 5.8 mph - N/A   Clear
3:20 PM 75.2 °F - 44.6 °F 34% 29.98 in - South 9.2 mph - N/A   Clear
3:50 PM 75.2 °F - 46.4 °F 36% 29.95 in - South 9.2 mph - N/A   Clear
4:20 PM 73.4 °F - 46.4 °F 38% 29.95 in - South 5.8 mph - N/A   Clear
4:50 PM 73.4 °F - 48.2 °F 41% 29.95 in - Variable 3.5 mph - N/A   Clear
5:00 PM 73 °F - 48 °F 30% 29.96 in 6 mi 3.5 mph - -   Overcast
5:20 PM 71.6 °F - 48.2 °F 43% 29.95 in - Variable 3.5 mph - N/A   Clear
5:50 PM 73.4 °F - 48.2 °F 41% 29.95 in - ESE 8.1 mph - N/A   Clear
6:20 PM 69.8 °F - 51.8 °F 53% 29.95 in - East 5.8 mph - N/A   Clear
6:50 PM 68.0 °F - 53.6 °F 60% 29.95 in - East 5.8 mph - N/A   Clear
7:20 PM 68.0 °F - 51.8 °F 56% 29.95 in - ENE 5.8 mph - N/A   Clear
7:50 PM 66.2 °F - 51.8 °F 60% 29.95 in - NE 4.6 mph - N/A   Clear
8:00 PM 67 °F - 52 °F 49% 29.97 in 6 mi NE 4.6 mph - -  
8:20 PM 66.2 °F - 51.8 °F 60% 29.98 in - Variable 3.5 mph - N/A   Clear
8:50 PM 64.4 °F - 51.8 °F 64% 29.98 in - Variable 3.5 mph - N/A   Clear
9:20 PM 62.6 °F - 51.8 °F 68% 29.95 in - East 5.8 mph - N/A   Clear
9:50 PM 62.6 °F - 51.8 °F 68% 29.95 in - Variable 1.2 mph - N/A   Clear
10:20 PM 60.8 °F - 50.0 °F 68% 29.95 in - Variable 3.5 mph - N/A   Clear
10:50 PM 60.8 °F - 50.0 °F 68% 29.92 in - Variable 3.5 mph - N/A   Clear
11:00 PM 60 °F - 49 °F 58% 29.94 in 6 mi 3.5 mph - -  
11:20 PM 59.0 °F - 48.2 °F 67% 29.92 in - Variable 1.2 mph - N/A   Clear
11:50 PM 60.8 °F - 46.4 °F 59% 29.92 in - Variable 1.2 mph - N/A   Clear